Weather Roundup
Issued by NWS

Home | Current Version | Previous Version | Text Only | Print | Product List | Glossary On
Versions: 1 2 3 4 5 6 7 8 9 10 11 12 13 14 15 16 17 18 19 20 21 22 23 24 25 26 27 28 29 30 31 32 33 34 35 36 37 38 39 40 41 42 43 44 45 46 47 48 49 50
000
NZUS93 KARX 031459
HRRWXR

CURRENT HOURLY OBSERVATIONS ACROSS
MUCH OF THE UPPER MISSISSIPPI VALLEY
NATIONAL WEATHER SERVICE LA CROSSE WI
1000 AM CDT THU SEP 03 2015


...SOUTHEAST MINNESOTA...


CITY           SKY/WX    TMP DP  RH WIND       PRES   REMARKS
ROCHESTER      SUNNY     77  71  82 S3        29.94S
ROCHESTER/MAYO FAIR      77  72  83 CALM      29.93F
WINONA         MOSUNNY   73  73 100 E3        29.92F
AUSTIN         SUNNY     77  72  83 S3        29.92F
ALBERT LEA     SUNNY     75  72  88 S3        29.91F
DODGE CENTER   SUNNY     75  72  88 CALM      29.93S
PRESTON        SUNNY     76  69  80 CALM      29.95R
OWATONNA       SUNNY     79  72  78 SE3       29.91F
FARIBAULT      SUNNY     77  72  83 CALM      29.92S
$$

...ELSEWHERE IN MINNESOTA...


CITY           SKY/WX    TMP DP  RH WIND       PRES   REMARKS
MINNEAPOLIS    CLOUDY    72  70  93 E8        29.92R FOG
INTNL FALLS    MOSUNNY   69  63  81 SE9       29.95F
DULUTH         DRZL/FOG  62  61  96 E10       30.00S VSB 1/4
RED WING       CLOUDY    73  70  88 SE5       29.92R
REDWOOD FALLS  PTSUNNY   73  70  90 SE7       29.87S FOG
MANKATO        SUNNY     75  72  88 SE8       29.90S
WORTHINGTON    SUNNY     75  68  78 S8        29.88F
FAIRMONT       SUNNY     75  66  73 S9        29.89S
$$

...SOUTHWEST WISCONSIN...


CITY           SKY/WX    TMP DP  RH WIND       PRES   REMARKS
LA CROSSE      SUNNY     79  70  74 CALM      29.92S
PRAIRIE DU CHI SUNNY     78  68  70 CALM      29.92S
BOSCOBEL       SUNNY     80  70  71 SW3       29.93S
LONE ROCK      NOT AVBL
PLATTEVILLE    SUNNY     78  73  83 SW7       29.95S
FORT MC COY    PTSUNNY   75  68  78 CALM      29.94S
CAMP DOUGLAS   CLOUDY    73  73 100 N5        29.94S
VIROQUA          N/A     76  73  91 CALM      29.95F
WIS DELLS      SUNNY     78  68  72 CALM      29.94S
$$

...ELSEWHERE IN WISCONSIN...


CITY           SKY/WX    TMP DP  RH WIND       PRES   REMARKS
MILWAUKEE      MOSUNNY   80  69  69 W8        29.92S
MADISON        MOSUNNY   79  70  74 VRB5      29.93F
GREEN BAY      CLOUDY    70  67  90 N8        29.93R
EAU CLAIRE     NOT AVBL
BLACK RVR FLS  CLOUDY    72  71  96 NE6       29.94S
MEDFORD        CLOUDY    66  64  95 E8        29.99S
WAUSAU         CLOUDY    68  64  87 VRB3      29.96F
WIS RAPIDS     CLOUDY    69  64  84 NE6       29.98R
MARSHFIELD     CLOUDY    69  63  81 E6        29.98R
RICE LAKE      CLOUDY    66  64  96 E7        29.99R
$$

...NORTHEAST IOWA...


CITY           SKY/WX    TMP DP  RH WIND       PRES   REMARKS
DECORAH        SUNNY     77  72  83 VRB3      29.93S
MASON CITY     SUNNY     77  72  84 S3        29.93F
CHARLES CITY   SUNNY     77  73  88 S5        29.93S
OELWEIN        SUNNY     77  72  83 SW5       29.94F
$$

...ELSEWHERE IN IOWA...


CITY           SKY/WX    TMP DP  RH WIND       PRES   REMARKS
DES MOINES     PTSUNNY   78  69  73 S10       29.92S
IOWA CITY      SUNNY     79  71  76 SW9       29.96S
FORT DODGE     SUNNY     79  70  73 S8        29.91F
$$

...NORTHERN ILLINOIS...


CITY           SKY/WX    TMP DP  RH WIND       PRES   REMARKS
CHICAGO-OHARE  MOSUNNY   82  69  64 W12       29.94F
CHICAGO-MIDWAY MOSUNNY   84  68  58 W10       29.95S
MOLINE         MOSUNNY   83  70  64 SW6       29.95S
ROCKFORD       SUNNY     81  70  69 SW7       29.96S
PEORIA         SUNNY     84  69  60 SW9       29.99S
$$

NOTE: "FAIR" INDICATES FEW OR NO CLOUDS BELOW 12,000 FEET WITH NO
SIGNIFICANT WEATHER AND/OR OBSTRUCTIONS TO VISIBILITY. WIND
SPEEDS ARE IN MILES-PER-HOUR.



USA.gov is the U.S. government's official web portal to all federal, state and local government web resources and services.